sat.trackr.live / text

‹ back to catalog

STARLINK-5186

NORAD 54177 · 2022-141W

PAYLOAD ACTIVE UNKNOWN

§ Identity

Operator
Country
US
Launch date
2022-10-28
Launch site
AFWTR
Launch vehicle
Mass (kg)
RCS (m²)

Purposes: comms

External: N2YO · Heavens-Above · Gunter

§ Orbital elements

Epoch: 2026-05-25T00:46:04.284192Z

Period
95.44 min
Inclination
53.2141°
Eccentricity
0.0001379
Mean motion
15.08829443 rev/d
Perigee alt
538.8 km
Apogee alt
540.7 km
Semi-major
6,917.9 km
B*
-1.4169e-4
RAAN
21.3375°
Arg perigee
91.1667°
Mean anomaly
268.9483°
Rev number
19,738

§ Raw data

STARLINK-51861 54177U 22141W   26145.03199403 -.00002542  00000+0 -14169-3 0  99992 54177  53.2141  21.3375 0001379  91.1667 268.9483 15.08829443197385

JSON: /api/v1/satellites/54177 · /tle

For live sub-satellite position, see the globe view (requires WebGL).

§ Visibility from observer

Set your observer location to see the next 7 days of passes ≥ 10°. The values pass through the URL so the page stays shareable.

No JS? Fill the form by hand. The geolocation button needs JavaScript.